User: anonymous   Login
Location: French Creek State Gamelands
(40.1750°N, 75.7969°W)
Time: 13:53:18
(UTC-04:00)
Language:

ISS - Orbit

View from above orbital plane
View from above orbital plane
View from above satellite
View from above satellite

Ground track
Ground track

The orbit data is extracted from the following two-line orbital elements,

1 25544U 98067A   15216.54132093  .00005957  00000-0  94181-4 0  9995
2 25544 051.6434 202.5919 0001237 044.5510 057.0425 15.54997243955567
Epoch (UTC): 04 August 2015 12:59:30
Eccentricity: 0.0001237
inclination: 51.6434°
perigee height: 401 km
apogee height: 403 km
right ascension of ascending node: 202.5919°
argument of perigee: 44.5510°
revolutions per day: 15.54997243
mean anomaly at epoch: 57.0425°
orbit number at epoch: 95556

The dashed part of the orbit path shows where the satellite is in the earth's shadow,  

DLR